When you browse on this site, cookies collect data to enhance your experience and personalize the content and advertising you see.
Visit our Privacy Policy to learn more. By continuing to use the site, you agree to this use of cookies and data.
  • In Hungary
  • List of Countries
  • For 7 days
  • Water Temperature
  • Satellite Maps
  • Weather Map
  • News
  • Weather Widgets
  • user-avatar
    Login

    Hourly Weather Ullo

    Today, 19 June, Wednesday

    Time Temperature Precipitation Wind Pressure Humidity
    00:00 +21°C° 0.1 mm 0 mps 749 mmHg 78%
    01:00 +23°C° 0.1 mm 1 mps 749 mmHg 80%
    02:00 +22°C° 0.2 mm 1 mps 749 mmHg 82%
    03:00 +22°C° 0.2 mm 1 mps 749 mmHg 84%
    04:00 +22°C° 0.2 mm 1 mps 749 mmHg 86%
    05:00 +23°C° 0 mm 2 mps 749 mmHg 83%
    06:00 +24°C° 0 mm 2 mps 749 mmHg 80%
    07:00 +25°C° 0 mm 2 mps 749 mmHg 78%
    08:00 +26°C° 1.4 mm 2 mps 749 mmHg 72%
    09:00 +28°C° 1.4 mm 2 mps 749 mmHg 66%
    10:00 +29°C° 1.4 mm 2 mps 748 mmHg 60%
    11:00 +30°C° 0.3 mm 2 mps 748 mmHg 58%
    12:00 +30°C° 0.3 mm 3 mps 748 mmHg 56%
    13:00 +31°C° 0.3 mm 3 mps 748 mmHg 54%
    14:00 +31°C° 0.3 mm 3 mps 748 mmHg 55%
    15:00 +30°C° 0.3 mm 3 mps 747 mmHg 57%
    16:00 +30°C° 0.3 mm 3 mps 747 mmHg 58%
    17:00 +29°C° 0.3 mm 2 mps 747 mmHg 62%
    18:00 +28°C° 0.3 mm 2 mps 747 mmHg 65%
    19:00 +27°C° 0.3 mm 1 mps 747 mmHg 69%
    20:00 +27°C° 1.2 mm 1 mps 747 mmHg 71%
    21:00 +26°C° 1.2 mm 1 mps 747 mmHg 73%
    22:00 +23°C° 1.2 mm 0 mps 747 mmHg 75%
    23:00 +22°C° 0.5 mm 0 mps 747 mmHg 76%

    Tomorrow, 20 June, Thursday

    Time Temperature Precipitation Wind Pressure Humidity
    00:00 +22°C° 0.5 mm 0 mps 747 mmHg 78%
    01:00 +22°C° 0.5 mm 0 mps 747 mmHg 79%
    02:00 +23°C° 1 mm 1 mps 747 mmHg 82%
    03:00 +23°C° 1 mm 1 mps 747 mmHg 84%
    04:00 +23°C° 1 mm 1 mps 747 mmHg 86%
    05:00 +23°C° 0.1 mm 1 mps 747 mmHg 84%
    06:00 +24°C° 0.1 mm 1 mps 747 mmHg 82%
    07:00 +25°C° 0.1 mm 1 mps 747 mmHg 79%
    08:00 +26°C° 1.3 mm 2 mps 747 mmHg 73%
    09:00 +28°C° 1.3 mm 2 mps 747 mmHg 66%
    10:00 +29°C° 1.3 mm 3 mps 747 mmHg 59%
    11:00 +30°C° 0.4 mm 3 mps 747 mmHg 57%
    12:00 +30°C° 0.4 mm 3 mps 747 mmHg 56%
    13:00 +31°C° 0.4 mm 3 mps 747 mmHg 54%
    14:00 +30°C° 1 mm 2 mps 747 mmHg 55%
    15:00 +30°C° 1 mm 2 mps 747 mmHg 56%
    16:00 +30°C° 1 mm 1 mps 746 mmHg 57%
    17:00 +29°C° 0.3 mm 1 mps 746 mmHg 61%
    18:00 +28°C° 0.3 mm 1 mps 746 mmHg 65%
    19:00 +27°C° 0.3 mm 1 mps 746 mmHg 68%
    20:00 +26°C° 0.3 mm 1 mps 746 mmHg 71%
    21:00 +25°C° 0.3 mm 1 mps 747 mmHg 74%
    22:00 +22°C° 0.3 mm 0 mps 747 mmHg 76%
    23:00 +24°C° 0.5 mm 1 mps 747 mmHg 78%

    Day after tomorrow, 21 June, Friday

    Time Temperature Precipitation Wind Pressure Humidity
    00:00 +23°C° 0.5 mm 1 mps 747 mmHg 81%
    01:00 +23°C° 0.5 mm 1 mps 748 mmHg 83%
    02:00 +22°C° 0.1 mm 1 mps 748 mmHg 84%
    03:00 +22°C° 0.1 mm 1 mps 748 mmHg 86%
    04:00 +22°C° 0.1 mm 1 mps 748 mmHg 87%
    05:00 +23°C° 0 mm 1 mps 748 mmHg 84%
    06:00 +24°C° 0 mm 1 mps 748 mmHg 81%
    07:00 +25°C° 0 mm 1 mps 748 mmHg 77%
    08:00 +27°C° 0.4 mm 1 mps 748 mmHg 72%
    09:00 +28°C° 0.4 mm 1 mps 748 mmHg 68%
    10:00 +29°C° 0.4 mm 1 mps 748 mmHg 63%
    11:00 +30°C° 0.7 mm 1 mps 748 mmHg 59%
    12:00 +30°C° 0.7 mm 1 mps 748 mmHg 55%
    13:00 +31°C° 0.7 mm 2 mps 748 mmHg 51%
    14:00 +31°C° 0.5 mm 2 mps 748 mmHg 52%
    15:00 +31°C° 0.5 mm 2 mps 747 mmHg 54%
    16:00 +31°C° 0.5 mm 2 mps 747 mmHg 55%
    17:00 +29°C° 0.4 mm 2 mps 747 mmHg 60%
    18:00 +28°C° 0.4 mm 2 mps 747 mmHg 64%
    19:00 +27°C° 0.4 mm 2 mps 747 mmHg 69%
    20:00 +26°C° 0 mm 1 mps 748 mmHg 71%
    21:00 +25°C° 0 mm 1 mps 748 mmHg 73%
    22:00 +24°C° 0 mm 1 mps 748 mmHg 75%
    23:00 +24°C° 0.2 mm 1 mps 748 mmHg 76%

    22 June, Saturday

    Time Temperature Precipitation Wind Pressure Humidity
    00:00 +24°C° 0.2 mm 1 mps 748 mmHg 78%
    01:00 +23°C° 0.2 mm 1 mps 748 mmHg 79%
    02:00 +23°C° 0.1 mm 1 mps 748 mmHg 81%
    03:00 +22°C° 0.1 mm 1 mps 748 mmHg 83%
    04:00 +22°C° 0.1 mm 1 mps 748 mmHg 85%
    05:00 +23°C° 0 mm 1 mps 748 mmHg 83%
    06:00 +24°C° 0 mm 1 mps 749 mmHg 80%
    07:00 +25°C° 0 mm 1 mps 749 mmHg 78%
    08:00 +26°C° 0.5 mm 1 mps 749 mmHg 74%
    09:00 +27°C° 0.5 mm 1 mps 749 mmHg 71%
    10:00 +28°C° 0.5 mm 1 mps 749 mmHg 67%
    11:00 +29°C° 0.4 mm 1 mps 749 mmHg 62%
    12:00 +30°C° 0.4 mm 1 mps 749 mmHg 57%
    13:00 +31°C° 0.4 mm 2 mps 748 mmHg 53%
    14:00 +30°C° 0.9 mm 2 mps 748 mmHg 53%
    15:00 +30°C° 0.9 mm 2 mps 748 mmHg 54%
    16:00 +30°C° 0.9 mm 1 mps 747 mmHg 55%
    17:00 +29°C° 0.4 mm 2 mps 747 mmHg 60%
    18:00 +28°C° 0.4 mm 2 mps 747 mmHg 64%
    19:00 +27°C° 0.4 mm 2 mps 747 mmHg 68%
    20:00 +26°C° 0.4 mm 1 mps 747 mmHg 70%
    21:00 +25°C° 0.4 mm 1 mps 747 mmHg 72%
    22:00 +22°C° 0.4 mm 0 mps 748 mmHg 74%
    23:00 +24°C° 1.2 mm 1 mps 748 mmHg 77%

    23 June, Sunday

    Time Temperature Precipitation Wind Pressure Humidity
    00:00 +23°C° 1.2 mm 1 mps 748 mmHg 80%
    01:00 +23°C° 1.2 mm 2 mps 748 mmHg 83%
    02:00 +21°C° 0 mm 2 mps 748 mmHg 81%
    03:00 +22°C° 0 mm 1 mps 748 mmHg 79%
    04:00 +22°C° 0 mm 1 mps 748 mmHg 78%
    05:00 +23°C° 0.2 mm 1 mps 748 mmHg 76%
    06:00 +24°C° 0.2 mm 2 mps 749 mmHg 75%
    07:00 +25°C° 0.2 mm 2 mps 749 mmHg 73%
    08:00 +26°C° 0 mm 3 mps 749 mmHg 70%
    09:00 +27°C° 0 mm 3 mps 749 mmHg 67%
    10:00 +28°C° 0 mm 4 mps 749 mmHg 63%
    11:00 +28°C° 0 mm 5 mps 749 mmHg 62%
    12:00 +28°C° 0 mm 5 mps 749 mmHg 62%
    13:00 +29°C° 0 mm 6 mps 749 mmHg 61%
    14:00 +28°C° 0 mm 6 mps 749 mmHg 61%
    15:00 +28°C° 0 mm 6 mps 749 mmHg 60%
    16:00 +28°C° 0 mm 6 mps 749 mmHg 60%
    17:00 +27°C° 0 mm 5 mps 749 mmHg 63%
    18:00 +26°C° 0 mm 5 mps 750 mmHg 66%
    19:00 +25°C° 0 mm 4 mps 750 mmHg 69%
    20:00 +23°C° 0 mm 4 mps 751 mmHg 69%
    21:00 +22°C° 0 mm 3 mps 751 mmHg 70%
    22:00 +21°C° 0 mm 3 mps 752 mmHg 70%
    23:00 +21°C° 0 mm 3 mps 752 mmHg 70%

    24 June, Monday

    Time Temperature Precipitation Wind Pressure Humidity
    00:00 +20°C° 0 mm 3 mps 752 mmHg 69%
    01:00 +20°C° 0 mm 3 mps 753 mmHg 69%
    02:00 +19°C° 0 mm 3 mps 753 mmHg 71%
    03:00 +18°C° 0 mm 3 mps 753 mmHg 73%
    04:00 +17°C° 0 mm 3 mps 753 mmHg 75%
    05:00 +18°C° 0 mm 3 mps 754 mmHg 73%
    06:00 +19°C° 0 mm 3 mps 754 mmHg 71%
    07:00 +20°C° 0 mm 3 mps 754 mmHg 69%
    08:00 +21°C° 0 mm 3 mps 755 mmHg 67%
    09:00 +22°C° 0 mm 3 mps 755 mmHg 64%
    10:00 +24°C° 0 mm 3 mps 755 mmHg 62%
    11:00 +25°C° 0 mm 3 mps 755 mmHg 60%
    12:00 +26°C° 0 mm 3 mps 755 mmHg 58%
    13:00 +26°C° 0 mm 3 mps 755 mmHg 56%
    14:00 +26°C° 0.1 mm 3 mps 755 mmHg 58%
    15:00 +26°C° 0.1 mm 3 mps 755 mmHg 61%
    16:00 +25°C° 0.1 mm 3 mps 755 mmHg 63%
    17:00 +25°C° 0.1 mm 3 mps 755 mmHg 66%
    18:00 +24°C° 0.1 mm 3 mps 755 mmHg 69%
    19:00 +23°C° 0.1 mm 2 mps 755 mmHg 72%
    20:00 +21°C° 0 mm 2 mps 756 mmHg 70%
    21:00 +20°C° 0 mm 2 mps 756 mmHg 69%
    22:00 +19°C° 0 mm 2 mps 757 mmHg 67%
    23:00 +19°C° 0 mm 1 mps 757 mmHg 67%
    Show more